GW4806 Weather Reports


time (UTC)temp
C
wind
direction
speed
KPH
gust
KPH
rain 1hr
cm
rain 24hr
cm
rain mn
cm
humidity
%
barometer
mb
20260504050311 10 107 3.2 3.2 0.00 0.00 0.00 62 1002.8
20260504045808 10 131 3.2 3.2 0.00 0.00 0.00 61 1002.7
20260504045304 10 90 1.6 3.2 0.00 0.00 0.00 61 1002.7
20260504044800 10 165 0.0 3.2 0.00 0.00 0.00 61 1002.9
20260504044258 10 165 0.0 3.2 0.00 0.00 0.00 61 1002.8
20260504043755 10 172 0.0 1.6 0.00 0.00 0.00 59 1003.1
20260504043251 10 175 0.0 0.0 0.00 0.00 0.00 59 1003.2
20260504042749 10 105 0.0 1.6 0.00 0.00 0.00 61 1003.1
20260504042245 11 74 0.0 3.2 0.00 0.00 0.00 60 1003.2
20260504041742 11 165 0.0 3.2 0.00 0.00 0.00 57 1003.3
20260504041238 11 151 0.0 3.2 0.00 0.00 0.00 56 1003.3
20260504040734 11 139 0.0 3.2 0.00 0.00 0.00 56 1003.4
20260504040232 11 180 1.6 1.6 0.00 0.00 0.00 56 1003.7
20260504035727 11 157 0.0 1.6 0.00 0.00 0.00 55 1003.5
20260504035225 11 180 0.0 3.2 0.00 0.00 0.00 54 1003.7
20260504034722 11 123 0.0 1.6 0.00 0.00 0.00 55 1003.6
20260504034219 11 165 0.0 1.6 0.00 0.00 0.00 54 1003.8
20260504033717 11 106 0.0 0.0 0.00 0.00 0.00 56 1003.8
20260504033214 11 90 0.0 1.6 0.00 0.00 0.00 56 1004.1
20260504032711 11 126 0.0 3.2 0.00 0.00 0.00 56 1004.1
20260504032208 12 166 0.0 1.6 0.00 0.00 0.00 51 1004.1
20260504031705 12 168 0.0 1.6 0.00 0.00 0.00 52 1004.1
20260504031202 12 157 0.0 3.2 0.00 0.00 0.00 55 1004.3
20260504030658 12 157 0.0 1.6 0.00 0.00 0.00 55 1004.4
20260504030155 12 106 0.0 1.6 0.00 0.00 0.00 54 1004.3
20260504025652 12 106 0.0 0.0 0.00 0.00 0.00 54 1004.2
20260504025148 12 117 1.6 1.6 0.00 0.00 0.00 55 1004.4
20260504024646 12 75 0.0 0.0 0.00 0.00 0.00 55 1004.2
20260504024142 12 120 0.0 1.6 0.00 0.00 0.00 54 1004.2
20260504023639 12 81 0.0 0.0 0.00 0.00 0.00 54 1004.2
20260504023135 12 90 1.6 1.6 0.00 0.00 0.00 53 1004.1
20260504022632 13 75 0.0 3.2 0.00 0.00 0.00 53 1004.2
20260504022127 13 90 0.0 1.6 0.00 0.00 0.00 53 1004.4
20260504021626 13 75 0.0 1.6 0.00 0.00 0.00 50 1004.1
20260504021122 13 90 0.0 0.0 0.00 0.00 0.00 48 1004.2
20260504020619 14 90 0.0 0.0 0.00 0.00 0.00 47 1004.1
20260504020115 15 103 0.0 1.6 0.00 0.00 0.00 47 1004.4
20260504015612 15 74 1.6 1.6 0.00 0.00 0.00 44 1003.9
20260504015108 15 90 0.0 1.6 0.00 0.00 0.00 42 1004.1
20260504014604 15 90 0.0 1.6 0.00 0.00 0.00 43 1004.0
20260504014101 16 81 0.0 1.6 0.00 0.00 0.00 41 1004.1
20260504013559 16 90 0.0 3.2 0.00 0.00 0.00 38 1004.1
20260504013055 17 23 0.0 1.6 0.00 0.00 0.00 37 1004.1
20260504012553 17 81 0.0 0.0 0.00 0.00 0.00 36 1003.9
20260504012051 17 120 0.0 3.2 0.00 0.00 0.00 35 1004.1
20260504011547 18 345 0.0 1.6 0.00 0.00 0.00 35 1004.2
20260504011043 18 6 0.0 3.2 0.00 0.00 0.00 34 1004.3
20260504010539 18 279 0.0 3.2 0.00 0.00 0.00 34 1004.1
20260504010036 18 0 0.0 3.2 0.00 0.00 0.00 33 1004.1
20260504005532 18 8 0.0 3.2 0.00 0.00 0.00 33 1004.1
20260504005030 19 0 1.6 6.4 0.00 0.00 0.00 31 1004.1
20260504004528 19 251 0.0 8.0 0.00 0.00 0.00 31 1004.1
20260504004024 20 286 0.0 3.2 0.00 0.00 0.00 31 1004.2
20260504003520 20 276 4.8 6.4 0.00 0.00 0.00 31 1004.2
20260504003017 20 355 3.2 11.3 0.00 0.00 0.00 31 1004.4
20260504002514 20 297 3.2 9.7 0.00 0.00 0.00 32 1004.2
20260504002012 20 341 8.0 8.0 0.00 0.00 0.00 30 1004.1
20260504001509 20 11 0.0 11.3 0.00 0.00 0.00 29 1004.2
20260504001005 20 342 4.8 11.3 0.00 0.00 0.00 29 1004.1
20260504000503 20 305 4.8 11.3 0.00 0.00 0.00 29 1004.1
20260504000000 20 326 8.0 12.9 0.00 0.00 0.00 29 1004.3
20260503235458 20 339 3.2 8.0 0.00 0.00 0.00 29 1004.2
20260503234955 21 285 4.8 8.0 0.00 0.00 0.00 29 1004.3
20260503234452 21 133 4.8 8.0 0.00 0.00 0.00 28 1004.1
20260503233950 21 308 6.4 12.9 0.00 0.00 0.00 30 1004.2
20260503233446 21 346 6.4 11.3 0.00 0.00 0.00 29 1004.3
20260503232943 21 345 3.2 8.0 0.00 0.00 0.00 29 1004.2
20260503232440 21 339 8.0 14.5 0.00 0.00 0.00 29 1004.1
20260503231938 21 345 9.7 22.5 0.00 0.00 0.00 27 1004.3
20260503231435 21 270 9.7 9.7 0.00 0.00 0.00 31 1004.1
20260503230931 21 356 6.4 14.5 0.00 0.00 0.00 29 1004.3
20260503230428 21 331 0.0 17.7 0.00 0.00 0.00 29 1004.1
20260503225926 21 320 4.8 8.0 0.00 0.00 0.00 28 1004.2
20260503225422 21 336 6.4 11.3 0.00 0.00 0.00 29 1004.2
20260503224918 21 45 8.0 8.0 0.00 0.00 0.00 28 1004.2
20260503224415 21 0 0.0 9.7 0.00 0.00 0.00 31 1004.2
20260503223913 21 321 6.4 11.3 0.00 0.00 0.00 27 1004.3
20260503223410 21 341 4.8 8.0 0.00 0.00 0.00 27 1004.1
20260503222911 21 297 4.8 19.3 0.00 0.00 0.00 28 1004.2
20260503222409 21 0 3.2 17.7 0.00 0.00 0.00 27 1004.2
20260503221907 21 262 4.8 14.5 0.00 0.00 0.00 27 1004.2
20260503221406 21 323 4.8 8.0 0.00 0.00 0.00 26 1004.4
20260503220901 21 290 4.8 12.9 0.00 0.00 0.00 28 1004.4
20260503220358 20 85 0.0 8.0 0.00 0.00 0.00 27 1004.3
20260503215855 22 33 8.0 19.3 0.00 0.00 0.00 26 1004.2
20260503215352 21 331 1.6 8.0 0.00 0.00 0.00 28 1004.2
20260503214849 20 324 3.2 9.7 0.00 0.00 0.00 26 1004.3
20260503214347 21 298 4.8 16.1 0.00 0.00 0.00 25 1004.3
20260503213844 20 235 0.0 16.1 0.00 0.00 0.00 31 1004.2
20260503213342 21 13 4.8 16.1 0.00 0.00 0.00 27 1004.4
20260503212838 21 329 11.3 14.5 0.00 0.00 0.00 25 1004.5
20260503212336 21 355 4.8 20.9 0.00 0.00 0.00 25 1004.4
20260503211833 21 339 8.0 12.9 0.00 0.00 0.00 26 1004.5
20260503211330 21 1 8.0 17.7 0.00 0.00 0.00 26 1004.6
20260503210825 20 344 4.8 12.9 0.00 0.00 0.00 28 1004.3
20260503210323 21 339 8.0 19.3 0.00 0.00 0.00 28 1004.6
20260503205818 21 169 4.8 12.9 0.00 0.00 0.00 29 1004.5
20260503205314 20 17 6.4 20.9 0.00 0.00 0.00 33 1004.7
20260503204811 20 359 11.3 22.5 0.00 0.00 0.00 30 1004.7
20260503204309 20 270 4.8 16.1 0.00 0.00 0.00 30 1004.7
20260503203806 20 312 6.4 11.3 0.00 0.00 0.00 31 1004.6
20260503203303 20 290 3.2 9.7 0.00 0.00 0.00 31 1004.8
20260503202800 21 341 0.0 12.9 0.00 0.00 0.00 32 1004.6
20260503202258 20 285 0.0 11.3 0.00 0.00 0.00 35 1004.6
20260503201755 20 345 1.6 17.7 0.00 0.00 0.00 31 1004.9
20260503201253 20 345 3.2 12.9 0.00 0.00 0.00 31 1004.7
20260503200750 20 320 4.8 16.1 0.00 0.00 0.00 31 1004.7
20260503200246 20 352 3.2 8.0 0.00 0.00 0.00 32 1004.8
20260503195743 20 220 0.0 12.9 0.00 0.00 0.00 32 1004.9
20260503195239 20 330 8.0 16.1 0.00 0.00 0.00 33 1004.9
20260503194738 20 354 4.8 22.5 0.00 0.00 0.00 31 1005.2
20260503194233 20 251 4.8 12.9 0.00 0.00 0.00 29 1004.9
20260503193729 20 344 6.4 9.7 0.00 0.00 0.00 32 1004.9
20260503193225 21 329 4.8 17.7 0.00 0.00 0.00 28 1005.1
20260503192721 20 41 3.2 12.9 0.00 0.00 0.00 31 1004.8
20260503192216 20 39 4.8 22.5 0.00 0.00 0.00 30 1005.2
20260503191714 20 276 4.8 16.1 0.00 0.00 0.00 30 1004.9
20260503191211 20 352 4.8 11.3 0.00 0.00 0.00 29 1004.9
20260503190707 20 344 3.2 17.7 0.00 0.00 0.00 30 1005.3
20260503190204 20 352 6.4 11.3 0.00 0.00 0.00 31 1005.1
20260503185701 20 12 4.8 9.7 0.00 0.00 0.00 30 1005.2
20260503185156 20 342 3.2 14.5 0.00 0.00 0.00 33 1005.3
20260503184651 20 323 12.9 19.3 0.00 0.00 0.00 34 1005.1
20260503184148 19 15 4.8 27.4 0.00 0.00 0.00 34 1005.1
20260503183644 20 312 12.9 22.5 0.00 0.00 0.00 32 1005.1
20260503183142 20 319 9.7 14.5 0.00 0.00 0.00 32 1005.3
20260503182640 19 3 3.2 20.9 0.00 0.00 0.00 33 1005.3
20260503182139 19 295 6.4 11.3 0.00 0.00 0.00 34 1005.1
20260503181635 20 270 3.2 17.7 0.00 0.00 0.00 35 1005.3
20260503181132 20 24 6.4 14.5 0.00 0.00 0.00 35 1005.2
20260503180628 20 46 8.0 22.5 0.00 0.00 0.00 36 1005.3
20260503180126 19 14 3.2 17.7 0.00 0.00 0.00 38 1005.3
20260503175623 18 339 12.9 25.7 0.00 0.00 0.00 36 1005.3
20260503175120 20 299 4.8 14.5 0.00 0.00 0.00 36 1005.3
20260503174617 18 0 1.6 11.3 0.00 0.00 0.00 39 1005.4
20260503174114 19 270 3.2 16.1 0.00 0.00 0.00 40 1005.6
20260503173609 19 61 17.7 17.7 0.00 0.00 0.00 38 1005.6
20260503173106 18 342 11.3 11.3 0.00 0.00 0.00 40 1005.6
20260503172603 18 343 4.8 16.1 0.00 0.00 0.00 39 1005.5
20260503172100 18 13 8.0 16.1 0.00 0.00 0.00 39 1005.6
20260503171556 19 270 4.8 17.7 0.00 0.00 0.00 43 1005.4
20260503171054 18 297 8.0 14.5 0.00 0.00 0.00 43 1005.6
20260503170550 18 308 9.7 12.9 0.00 0.00 0.00 42 1005.5
20260503150943 15 213 3.2 12.9 0.00 0.00 0.00 49 1004.8
20260503150439 15 252 4.8 9.7 0.00 0.00 0.00 50 1004.9
20260503131332 12 199 8.0 14.5 0.00 0.00 0.00 53 1005.2
20260503130829 11 183 6.4 14.5 0.00 0.00 0.00 53 1005.1
20260503130327 12 202 3.2 8.0 0.00 0.00 0.00 53 1005.1
20260503110721 10 131 3.2 12.9 0.00 0.00 0.00 55 1004.8
20260503110218 10 174 4.8 9.7 0.00 0.00 0.00 54 1004.9
20260503100144 11 138 4.8 9.7 0.00 0.00 0.00 51 1005.5
20260503081538 12 168 3.2 9.7 0.00 0.00 0.00 52 1007.7
20260503081036 12 190 4.8 12.9 0.00 0.00 0.00 52 1008.0
20260503080532 12 212 4.8 9.7 0.00 0.00 0.00 52 1008.0
20260503072506 13 208 4.8 17.7 0.00 0.00 0.00 46 1008.8
20260503072003 13 203 8.0 12.9 0.00 0.00 0.00 47 1008.7
20260503071500 12 177 8.0 11.3 0.00 0.00 0.00 51 1008.5
20260503070955 12 200 4.8 11.3 0.00 0.00 0.00 52 1008.6
20260503070453 12 190 4.8 11.3 0.00 0.00 0.00 51 1008.6